Retour au catalogue

THOR DELTA 1 DEB

ActifPO
NORAD 5360·DEBRIS·🇺🇸 United States

Lancé Apr 1, 1971 depuis Vandenberg Space Force Base

Loading…

Prochains Passages (prochaines 24 heures)

TLE

FraisSource: Space-Track

Époque: Sep 14, 2026, 12:29 UTC

1 05360U 71024C   26257.52015228  .00000047  00000-0  18809-3 0  9995
2 05360  88.3076 159.4921 0040804 224.7303 256.4464 12.67939166565968

Suivez THOR DELTA 1 DEB en temps réel avec AllMySat

Download on the App Store